Holland, MI

11:00 PM EDT on September 26, 2016 (GMT -0400)
Tulip City

Weather History for KBIV - June, 2013

Change the Weather History Date:

Monday, June 10, 2013

  Actual Average Record
Temperature  
Mean Temperature 69 °F 67 °F  
Max Temperature 76 °F 77 °F 92 °F (2012)
Min Temperature 61 °F 57 °F 33 °F (1980)
Degree Days  
Heating Degree Days 0 2  
Month to date heating degree days 33 28  
Since 1 June heating degree days 33 28  
Since 1 July heating degree days 5982 6140  
Cooling Degree Days 4 4  
Month to date cooling degree days 18 33  
Year to date cooling degree days 108 75  
Since 1 June cooling degree days 18 33  
Growing Degree Days 18 (Base 50)    
Moisture  
Dew Point 63 °F    
Average Humidity 82    
Maximum Humidity 93    
Minimum Humidity 70    
Precipitation  
Precipitation 0.08 in 0.16 in 0.62 in (1962)
Month to date precipitation 1.07 1.46  
Year to date precipitation 19.60 14.05  
Sea Level Pressure  
Sea Level Pressure 29.79 in    
Wind  
Wind Speed 6 mph (NE)    
Max Wind Speed 15 mph    
Max Gust Speed 20 mph    
Visibility 9 miles    
Events Rain    
T = Trace of Precipitation, MM = Missing Value Source: NWS Daily Summary

Daily Weather History Graph

Daily Weather History Graph

Search for Another Location

Airport or City:

Trip Planner

Search our weather history database for the weather conditions in past years. The results will help you decide how hot, cold, wet, or windy it might be!

Date:

Astronomy

Jun. 10, 2013 Rise Set
Actual Time 6:05 AM EDT 9:22 PM EDT
Civil Twilight 5:31 AM EDT 9:57 PM EDT
Nautical Twilight 4:45 AM EDT 10:42 PM EDT
Astronomical Twilight 3:50 AM EDT 11:37 PM EDT
Moon 7:55 AM EDT (6/10) 10:46 PM EDT (6/10)
Length of Visible Light 16h 26m
Length of Day
15h 16m
Waxing Crescent, 4% of the Moon is Illuminated
Jun 10
Waxing Crescent
Jun 16
First Quarter
Jun 23
Full
Jun 30
Last Quarter
Jul 8
New

Hourly Weather History & Observations

Time (EDT) Temp. Dew Point Humidity Pressure Visibility Wind Dir Wind Speed Gust Speed Precip Events Conditions
12:53 AM 70.0 °F 59.0 °F 68% 29.87 in 10.0 mi East 8.1 mph - N/A   Overcast
1:53 AM 68.0 °F 60.1 °F 76% 29.86 in 10.0 mi East 8.1 mph - 0.01 in Rain Light Rain
2:53 AM 66.0 °F 61.0 °F 84% 29.86 in 6.0 mi East 5.8 mph - 0.04 in Rain Light Rain
3:53 AM 66.0 °F 62.1 °F 87% 29.83 in 5.0 mi East 5.8 mph - 0.02 in   Overcast
4:53 AM 64.9 °F 62.1 °F 90% 29.81 in 5.0 mi East 5.8 mph - 0.01 in   Overcast
5:17 AM 64.4 °F 62.6 °F 94% 29.82 in 5.0 mi East 8.1 mph - 0.00 in   Overcast
5:53 AM 64.9 °F 61.0 °F 87% 29.80 in 4.0 mi East 8.1 mph - 0.00 in   Mostly Cloudy
6:53 AM 64.9 °F 62.1 °F 90% 29.80 in 4.0 mi East 5.8 mph - N/A   Overcast
7:53 AM 66.0 °F 62.1 °F 87% 29.80 in 5.0 mi East 8.1 mph - N/A   Overcast
8:53 AM 66.9 °F 63.0 °F 87% 29.78 in 6.0 mi ENE 9.2 mph - N/A   Overcast
9:53 AM 68.0 °F 62.1 °F 81% 29.78 in 10.0 mi East 6.9 mph - N/A   Overcast
10:53 AM 70.0 °F 64.0 °F 81% 29.78 in 10.0 mi East 8.1 mph - N/A   Overcast
11:53 AM 71.1 °F 64.0 °F 78% 29.77 in 10.0 mi Variable 3.5 mph - N/A   Overcast
12:00 PM 71.6 °F 64.4 °F 78% 29.78 in 10.0 mi ESE 4.6 mph - N/A   Overcast
12:53 PM 72.0 °F 64.9 °F 78% 29.76 in 10.0 mi East 5.8 mph - N/A   Overcast
1:34 PM 71.6 °F 64.4 °F 78% 29.77 in 10.0 mi ENE 8.1 mph - N/A   Overcast
1:47 PM 71.6 °F 64.4 °F 78% 29.77 in 10.0 mi ENE 6.9 mph - N/A   Overcast
1:48 PM 72.0 °F 64.9 °F 78% 29.76 in 10.0 mi ENE 6.9 mph - N/A   Overcast
2:01 PM 71.6 °F 64.4 °F 78% 29.77 in 10.0 mi NE 6.9 mph - N/A   Overcast
2:05 PM 71.6 °F 64.4 °F 78% 29.77 in 10.0 mi NE 6.9 mph - N/A   Overcast
2:39 PM 71.6 °F 66.2 °F 83% 29.77 in 2.5 mi ENE 6.9 mph - 0.00 in Rain Light Rain
2:53 PM 72.0 °F 66.0 °F 81% 29.77 in 10.0 mi North 3.5 mph - 0.00 in   Overcast
3:16 PM 71.6 °F 64.4 °F 78% 29.77 in 10.0 mi Calm Calm - N/A   Overcast
3:33 PM 73.4 °F 64.4 °F 73% 29.77 in 10.0 mi Calm Calm - N/A   Overcast
3:43 PM 73.4 °F 66.2 °F 78% 29.77 in 10.0 mi Variable 3.5 mph - N/A   Overcast
3:53 PM 73.0 °F 64.9 °F 76% 29.76 in 10.0 mi Calm Calm - N/A   Overcast
4:53 PM 73.0 °F 64.0 °F 73% 29.77 in 10.0 mi NW 11.5 mph - N/A   Overcast
5:31 PM 73.4 °F 64.4 °F 73% 29.78 in 10.0 mi WNW 9.2 mph 17.3 mph N/A   Overcast
5:53 PM 73.9 °F 64.0 °F 71% 29.77 in 10.0 mi NNW 6.9 mph - N/A   Mostly Cloudy
6:53 PM 73.9 °F 64.0 °F 71% 29.77 in 10.0 mi NNE 4.6 mph - N/A   Mostly Cloudy
7:53 PM 71.1 °F 63.0 °F 75% 29.79 in 10.0 mi NW 11.5 mph - N/A   Overcast
8:10 PM 71.6 °F 62.6 °F 73% 29.80 in 10.0 mi NW 5.8 mph - N/A   Mostly Cloudy
8:53 PM 68.0 °F 61.0 °F 78% 29.80 in 10.0 mi NW 5.8 mph - N/A   Clear
9:32 PM 66.2 °F 60.8 °F 83% 29.81 in 10.0 mi NW 4.6 mph - N/A   Mostly Cloudy
9:53 PM 66.9 °F 60.1 °F 79% 29.81 in 10.0 mi NW 4.6 mph - N/A   Mostly Cloudy
10:00 PM 66.2 °F 60.8 °F 83% 29.82 in 10.0 mi WNW 3.5 mph - N/A   Scattered Clouds
10:53 PM 64.0 °F 60.1 °F 87% 29.83 in 10.0 mi Calm Calm - N/A   Clear
11:53 PM 63.0 °F 59.0 °F 87% 29.84 in 10.0 mi WNW 4.6 mph - N/A   Clear